Regional Weather Roundup
Issued by NWS

Home | Current Version | Previous Version | Graphics & Text | Print | Product List | Glossary On
Versions: 1 2 3 4 5 6 7 8 9 10 11 12 13 14 15 16 17 18 19 20 21 22 23 24 25 26 27 28 29 30 31 32 33 34 35 36 37 38 39 40 41 42 43 44 45 46 47 48 49 50
000
ASUS43 KIND 262359
RWRIN

WEATHER ROUNDUP FOR INDIANA
NATIONAL WEATHER SERVICE INDIANAPOLIS IN
800 PM EDT TUE MAY 26 2015

NOTE: "FAIR" INDICATES FEW OR NO CLOUDS BELOW 12,000 FEET WITH NO
SIGNIFICANT WEATHER AND/OR OBSTRUCTIONS TO VISIBILITY.

* - STATION DOES NOT REPORT WEATHER SUCH AS PRECIPITATION OR FOG.

+ - STATION NOT QUALITY CONTROLLED BY THE NATIONAL WEATHER SERVICE.
    USE DATA WITH CAUTION...ESPECIALLY DEWPOINT AND RELATIVE
    HUMIDITY OBSERVATIONS.

INZ001>003-010>013-019-020-270100-
NORTHWEST INDIANA

CITY           SKY/WX    TMP DP  RH WIND       PRES   REMARKS
GARY /AIRPORT/ MOSUNNY   75  59  57 SW17G35   29.82R
RENSSELAER +   CLOUDY    73  63  68 SW21G31   29.87R

$$

LMZ046-743>745-270100-
SOUTHERN LAKE MICHIGAN

STATION/POSITION TIME  TEMP    WIND        PRES    WAVE
                       AIR SEA DIR/SP/G            HT
                 (UTC) (F)     (DEG/KT/KT) (MB)    (FT)
BURNS HARBOR     2300   73     210/ 22/ 33 1009.5S
MICHIGAN CITY    2300   73     180/ 18/ 28   N/A
5NW MICH CITY    2300   65 52  230/ 14/ 17   N/A     2

$$

INZ004-005-014>016-021>024-270100-
NORTH CENTRAL INDIANA

CITY           SKY/WX    TMP DP  RH WIND       PRES   REMARKS
ELKHART        LGT RAIN  68  64  88 SW12G18   29.85S
GOSHEN         MOSUNNY   74  63  68 S17       29.85R
6HR MIN TEMP:  68; 6HR MAX TEMP:  82; 6HR PCP: TRACE;

SOUTH BEND     PTSUNNY   72  63  73 SW16G23   29.84R
6HR MIN TEMP:  70; 6HR MAX TEMP:  80; 6HR PCP:  0.22;

WARSAW +       MOSUNNY   73  64  73 SW7       29.86S

$$

INZ006>009-017-018-025>027-270100-
NORTHEAST INDIANA

CITY           SKY/WX    TMP DP  RH WIND       PRES   REMARKS
ANGOLA *+      MOCLDY    73  66  78 S13       29.87S
FORT WAYNE     PTCLDY    73  66  78 S17       29.89F
6HR MIN TEMP:  70; 6HR MAX TEMP:  83; 6HR PCP:  0.22;


$$

INZ028-029-035-036-043>045-051>053-270100-
WEST CENTRAL INDIANA

CITY           SKY/WX    TMP DP  RH WIND       PRES   REMARKS
CRAWFORDSVL +  MOSUNNY   74  51  44 SW15      29.91S
6HR MIN TEMP:  73; 6HR MAX TEMP:  80;

GREENCASTLE +  PTSUNNY   73  54  49 S7        29.93S
LAFAYETTE      CLOUDY    74  60  61 SW12G23   29.88R
6HR MIN TEMP:  70; 6HR MAX TEMP:  78; 6HR PCP:  0.02;

TERRE HAUTE    PTSUNNY   75  59  57 SW12      29.93R
6HR MIN TEMP:  75; 6HR MAX TEMP:  82; 6HR PCP: TRACE;


$$

INZ030>032-037>040-046>048-054>057-064-065-270100-
CENTRAL INDIANA

CITY           SKY/WX    TMP DP  RH WIND       PRES   REMARKS
COLUMBUS       MOCLDY    73  64  73 S13G21    29.95R
GREENWOOD *+   CLOUDY    75  59  57 SW10G25   29.94R
INDIANAPOLIS   PTSUNNY   76  58  53 SW18      29.91R
6HR MIN TEMP:  71; 6HR MAX TEMP:  79; 6HR PCP: TRACE;

-EAGLE CREEK   PTSUNNY   76  59  55 SW12G20   29.91S
6HR MIN TEMP:  74; 6HR MAX TEMP:  80; 6HR PCP: TRACE;

KOKOMO *+      PTSUNNY   79  59  50 SW21G26   29.89R
6HR MIN TEMP:  73; 6HR MAX TEMP:  81; 6HR PCP:  0.02;

MT COMFORT *+  CLOUDY    73  63  68 S13G18    29.93R
SHELBYVILLE    CLOUDY    76  67  73 S15       29.93S
6HR MIN TEMP:  71; 6HR MAX TEMP:  79; 6HR PCP:  0.47;


$$

INZ033-034-041-042-049-050-058-059-270100-
EAST CENTRAL INDIANA

CITY           SKY/WX    TMP DP  RH WIND       PRES   REMARKS
MUNCIE         MOCLDY    74  66  76 S14G21    29.92S
6HR MIN TEMP:  71; 6HR MAX TEMP:  84; 6HR PCP:  0.12;


$$

INZ060-061-067>069-081>083-085>088-270100-
SOUTHWEST INDIANA

CITY           SKY/WX    TMP DP  RH WIND       PRES   REMARKS
EVANSVILLE     PTSUNNY   77  61  57 SW13      29.98S
6HR MIN TEMP:  76; 6HR MAX TEMP:  81;

HUNTINGBURG *+ MOSUNNY   75  61  60 SW12      29.99R
6HR MIN TEMP:  72; 6HR MAX TEMP:  81;


$$

INZ062-063-066-070>080-084-089>092-270100-
SOUTH CENTRAL AND SOUTHEAST INDIANA

CITY           SKY/WX    TMP DP  RH WIND       PRES   REMARKS
BLOOMINGTON    CLOUDY    76  58  53 SW10      29.95R
6HR MIN TEMP:  72; 6HR MAX TEMP:  80; 6HR PCP: TRACE;

MADISON *+     CLOUDY    70  64  83 S13       30.02R
SEYMOUR +      CLOUDY    77  66  69 S8        29.96S

$$




USA.gov is the U.S. government's official web portal to all federal, state and local government web resources and services.